AZG1752 UKBB-UBBB

Flight info

Callsign AZG1752
Flight time N/A
Altitude 35000
Route BASOR M856 ROMOK L851 KUGOS/N0477F350 UL851 KARDE UN644 ROLIN N644 LAGAS M747 LUSAL N319 PENOB T447 INSAN
Aircraft B77L/H-SDE1E2E3FGHIJ2J3J4J5M1RWXY/LB1D1

Departure

Time 2026-04-27 18:24
Airport Boryspil International Airport (UKBB)

Arrival

Time N/A
Airport Heydar Aliyev International Airport (UBBB)
Time Latitude Longitude Altitude Speed Heading
2026-04-27 17:58 50.34320 30.88708 410 ft 0 kts 273°
2026-04-27 18:18 50.34320 30.88704 422 ft 1 kts 273°
2026-04-27 18:18 50.34321 30.88670 416 ft 5 kts 273°
2026-04-27 18:18 50.34307 30.88610 412 ft 7 kts 213°
2026-04-27 18:18 50.34267 30.88554 409 ft 9 kts 263°
2026-04-27 18:19 50.34246 30.88453 408 ft 11 kts 216°
2026-04-27 18:19 50.34162 30.88430 411 ft 14 kts 183°
2026-04-27 18:19 50.34057 30.88422 409 ft 17 kts 182°
2026-04-27 18:19 50.33934 30.88412 410 ft 19 kts 183°
2026-04-27 18:20 50.33792 30.88403 418 ft 21 kts 182°
2026-04-27 18:20 50.33635 30.88390 413 ft 24 kts 183°
2026-04-27 18:20 50.33463 30.88378 410 ft 26 kts 182°
2026-04-27 18:20 50.33277 30.88364 409 ft 28 kts 183°
2026-04-27 18:21 50.33081 30.88350 410 ft 28 kts 182°
2026-04-27 18:21 50.32885 30.88335 410 ft 28 kts 182°
2026-04-27 18:21 50.32688 30.88321 409 ft 28 kts 182°
2026-04-27 18:21 50.32492 30.88307 410 ft 28 kts 182°
2026-04-27 18:22 50.32297 30.88292 410 ft 25 kts 182°
2026-04-27 18:22 50.32166 30.88283 414 ft 14 kts 182°
2026-04-27 18:22 50.32080 30.88258 410 ft 13 kts 226°
2026-04-27 18:22 50.32071 30.88119 410 ft 13 kts 272°
2026-04-27 18:23 50.32082 30.87972 416 ft 13 kts 298°
2026-04-27 18:23 50.32169 30.87941 409 ft 15 kts
2026-04-27 18:23 50.32369 30.87956 409 ft 51 kts
2026-04-27 18:23 50.32957 30.87998 413 ft 116 kts
2026-04-27 18:24 50.33936 30.88070 415 ft 167 kts
2026-04-27 18:24 50.35148 30.88172 859 ft 168 kts
2026-04-27 18:24 50.36321 30.88272 1465 ft 168 kts 359°
2026-04-27 18:24 50.37477 30.88377 2121 ft 167 kts 357°
2026-04-27 18:25 50.38703 30.88474 2420 ft 187 kts 357°
2026-04-27 18:25 50.40000 30.88118 2591 ft 199 kts 325°
2026-04-27 18:25 50.40906 30.86406 2815 ft 221 kts 292°
2026-04-27 18:25 50.41091 30.83954 3409 ft 237 kts 265°
2026-04-27 18:26 50.40465 30.81504 4117 ft 253 kts 237°
2026-04-27 18:26 50.39026 30.79824 4879 ft 271 kts 204°
2026-04-27 18:26 50.37146 30.79248 5568 ft 280 kts 191°
2026-04-27 18:26 50.35187 30.79051 6363 ft 284 kts 188°
2026-04-27 18:27 50.33206 30.78918 7122 ft 286 kts 188°
2026-04-27 18:27 50.31213 30.78775 7856 ft 288 kts 189°
2026-04-27 18:27 50.29200 30.78604 8568 ft 291 kts 190°
2026-04-27 18:27 50.27180 30.78408 9360 ft 291 kts 191°
2026-04-27 18:28 50.25148 30.78189 10087 ft 294 kts 191°
2026-04-27 18:28 50.23074 30.77946 10518 ft 308 kts 191°
2026-04-27 18:28 50.20853 30.77664 10689 ft 331 kts 191°
2026-04-27 18:28 50.18476 30.77356 10888 ft 355 kts 191°
2026-04-27 18:29 50.15941 30.77027 11168 ft 374 kts 190°
2026-04-27 18:29 50.13309 30.76690 11775 ft 385 kts 190°
2026-04-27 18:29 50.10609 30.76347 12540 ft 393 kts 191°
2026-04-27 18:29 50.07823 30.75993 13403 ft 398 kts 191°
2026-04-27 18:30 50.05080 30.75642 14189 ft 404 kts 191°
2026-04-27 18:30 50.02220 30.75274 14899 ft 409 kts 191°
2026-04-27 18:30 49.99403 30.74909 15631 ft 414 kts 191°
2026-04-27 18:30 49.96513 30.74534 16367 ft 420 kts 192°
2026-04-27 18:31 49.93581 30.74153 17104 ft 425 kts 192°
2026-04-27 18:31 49.90615 30.73768 17798 ft 431 kts 192°
2026-04-27 18:31 49.87610 30.73378 18477 ft 436 kts 192°
2026-04-27 18:31 49.84566 30.72984 19103 ft 441 kts 192°
2026-04-27 18:32 49.81497 30.72589 19750 ft 444 kts 192°
2026-04-27 18:32 49.78404 30.72192 20372 ft 448 kts 192°
2026-04-27 18:32 49.75292 30.71794 21040 ft 450 kts 192°
2026-04-27 18:32 49.72151 30.71390 21674 ft 454 kts 192°
2026-04-27 18:33 49.68993 30.70984 22278 ft 458 kts 192°
2026-04-27 18:33 49.65760 30.70570 22903 ft 462 kts 192°
2026-04-27 18:33 49.62586 30.70164 23513 ft 466 kts 192°
2026-04-27 18:33 49.59344 30.69750 24038 ft 469 kts 192°
2026-04-27 18:34 49.56078 30.69340 24546 ft 473 kts 191°
2026-04-27 18:34 49.52765 30.69159 25034 ft 479 kts 187°
2026-04-27 18:34 49.49400 30.69102 25640 ft 479 kts 187°
2026-04-27 18:34 49.46045 30.69053 26149 ft 482 kts 187°
2026-04-27 18:35 49.42676 30.68996 26608 ft 486 kts 187°
2026-04-27 18:35 49.39284 30.68930 27064 ft 490 kts 187°
2026-04-27 18:35 49.35909 30.68859 27528 ft 493 kts 187°
2026-04-27 18:35 49.32475 30.68784 27999 ft 495 kts 187°
2026-04-27 18:36 49.29017 30.68708 28463 ft 498 kts 187°
2026-04-27 18:36 49.25543 30.68632 28927 ft 501 kts 187°
2026-04-27 18:36 49.22046 30.68556 29335 ft 504 kts 187°
2026-04-27 18:36 49.18537 30.68479 29767 ft 506 kts 187°
2026-04-27 18:37 49.15009 30.68403 30175 ft 507 kts 187°
2026-04-27 18:37 49.11481 30.68329 30609 ft 507 kts 187°
2026-04-27 18:37 49.07957 30.68257 31096 ft 505 kts 187°
2026-04-27 18:37 49.04451 30.68186 31578 ft 503 kts 186°
2026-04-27 18:38 49.00961 30.68114 32053 ft 500 kts 186°
2026-04-27 18:38 48.97496 30.68042 32565 ft 497 kts 186°
2026-04-27 18:38 48.94043 30.67969 32989 ft 496 kts 186°
2026-04-27 18:38 48.90589 30.67895 33363 ft 496 kts 186°
2026-04-27 18:39 48.87139 30.67821 33751 ft 496 kts 186°
2026-04-27 18:39 48.83695 30.67748 34143 ft 494 kts 186°
2026-04-27 18:39 48.80254 30.67676 34467 ft 494 kts 186°
2026-04-27 18:39 48.76776 30.67604 34775 ft 492 kts 186°
2026-04-27 18:40 48.73413 30.67535 35144 ft 490 kts 186°
2026-04-27 18:40 48.69938 30.67460 35140 ft 495 kts 186°
2026-04-27 18:40 48.63107 30.67316 35143 ft 493 kts 186°
2026-04-27 18:41 48.56279 30.67177 35164 ft 489 kts 186°
2026-04-27 18:41 48.49482 30.67037 35163 ft 488 kts 186°
2026-04-27 18:42 48.44947 30.66942 35155 ft 487 kts 186°
2026-04-27 18:42 48.35915 30.66755 35168 ft 488 kts 186°
2026-04-27 18:43 48.29118 30.66615 35169 ft 489 kts 186°
2026-04-27 18:43 48.22311 30.66475 35162 ft 490 kts 186°
2026-04-27 18:44 48.15488 30.66336 35174 ft 491 kts 186°
2026-04-27 18:44 48.08638 30.66290 35171 ft 495 kts 182°
2026-04-27 18:45 48.01749 30.67514 35158 ft 500 kts 177°
2026-04-27 18:45 47.94860 30.69011 35169 ft 501 kts 177°
2026-04-27 18:46 47.89125 30.70223 35179 ft 501 kts 177°
2026-04-27 18:46 47.82222 30.71640 35178 ft 501 kts 177°
2026-04-27 18:47 47.75312 30.73041 35159 ft 501 kts 177°
2026-04-27 18:47 47.68422 30.74433 35180 ft 500 kts 177°
2026-04-27 18:48 47.61518 30.75827 35184 ft 500 kts 177°
2026-04-27 18:48 47.54629 30.77216 35187 ft 499 kts 177°
2026-04-27 18:49 47.47753 30.78598 35185 ft 498 kts 177°
2026-04-27 18:49 47.40902 30.79971 35192 ft 497 kts 177°
2026-04-27 18:50 47.34034 30.81344 35199 ft 497 kts 177°
2026-04-27 18:50 47.27171 30.82712 35190 ft 498 kts 177°
2026-04-27 18:51 47.20313 30.84076 35195 ft 497 kts 177°
2026-04-27 18:51 47.13459 30.85436 35198 ft 497 kts 178°
2026-04-27 18:52 47.06609 30.86791 35198 ft 496 kts 178°
2026-04-27 18:53 46.96342 30.88815 35190 ft 496 kts 178°
2026-04-27 18:53 46.89512 30.90159 35198 ft 495 kts 178°
2026-04-27 18:54 46.82689 30.91496 35206 ft 495 kts 178°
2026-04-27 18:54 46.75865 30.92830 35211 ft 494 kts 178°
2026-04-27 18:55 46.69049 30.94160 35203 ft 494 kts 178°
2026-04-27 18:55 46.62227 30.95486 35217 ft 494 kts 178°
2026-04-27 18:56 46.55413 30.96809 35205 ft 494 kts 178°
2026-04-27 18:56 46.48601 30.98128 35200 ft 493 kts 178°
2026-04-27 18:57 46.41803 30.99441 35210 ft 492 kts 178°
2026-04-27 18:57 46.35058 31.00740 35221 ft 492 kts 178°
2026-04-27 18:58 46.28271 31.02044 35222 ft 492 kts 178°
2026-04-27 18:58 46.21489 31.03344 35217 ft 491 kts 178°
2026-04-27 18:59 46.14714 31.04639 35227 ft 491 kts 178°
2026-04-27 18:59 46.07936 31.05931 35229 ft 491 kts 178°
2026-04-27 19:00 46.01157 31.07221 35205 ft 491 kts 178°
2026-04-27 19:00 45.94382 31.08508 35233 ft 491 kts 178°
2026-04-27 19:01 45.87607 31.09785 35236 ft 491 kts 179°
2026-04-27 19:01 45.80841 31.10223 35244 ft 485 kts 185°
2026-04-27 19:02 45.74088 31.10281 35223 ft 486 kts 185°
2026-04-27 19:02 45.67270 31.10379 35236 ft 487 kts 185°
2026-04-27 19:03 45.60488 31.10511 35252 ft 488 kts 185°
2026-04-27 19:03 45.53682 31.10649 35222 ft 489 kts 185°
2026-04-27 19:04 45.46876 31.10786 35245 ft 489 kts 185°
2026-04-27 19:04 45.40071 31.10920 35254 ft 489 kts 185°
2026-04-27 19:05 45.33310 31.11053 35249 ft 489 kts 185°
2026-04-27 19:05 45.26510 31.11357 35246 ft 491 kts 180°
2026-04-27 19:06 45.19747 31.13195 35258 ft 498 kts 171°
2026-04-27 19:06 45.13045 31.15663 35251 ft 497 kts 171°
2026-04-27 19:07 45.06310 31.18094 35242 ft 496 kts 171°
2026-04-27 19:07 44.99629 31.20456 35256 ft 494 kts 171°
2026-04-27 19:08 44.92968 31.22792 35260 ft 493 kts 171°
2026-04-27 19:08 44.86314 31.25121 35263 ft 492 kts 171°
2026-04-27 19:09 44.79671 31.27443 35257 ft 492 kts 171°
2026-04-27 19:09 44.72986 31.29776 35269 ft 491 kts 171°
2026-04-27 19:10 44.66398 31.32068 35273 ft 491 kts 171°
2026-04-27 19:10 44.59711 31.34390 35276 ft 492 kts 171°
2026-04-27 19:11 44.53069 31.36691 35273 ft 492 kts 171°
2026-04-27 19:11 44.46424 31.38988 35275 ft 492 kts 171°
2026-04-27 19:12 44.39775 31.41281 35271 ft 492 kts 171°
2026-04-27 19:12 44.33123 31.43570 35271 ft 492 kts 171°
2026-04-27 19:13 44.26475 31.45856 35273 ft 492 kts 171°
2026-04-27 19:13 44.19831 31.48145 35275 ft 492 kts 171°